Regional Weather Roundup
Issued by NWS Kansas City/Pleasant Hill, MO

Home | Current Version | Previous Version | Graphics & Text | Print | Product List | Glossary Off
Versions: 1 2 3 4 5 6 7 8 9 10 11 12 13 14 15 16 17 18 19 20 21 22 23 24 25 26 27 28

000
ASUS43 KEAX 252310
RWREAX

WEATHER ROUNDUP FOR EASTERN KANSAS AND NORTHWEST MISSOURI
NATIONAL WEATHER SERVICE KANSAS CITY/PLEASANT HILL MO
600 PM CDT MON JUL 25 2016

KSZ040-057-103>105-MOZ028-029-037-043-260000-
...KANSAS CITY METROPOLITAN AREA...

CITY           SKY/WX    TMP DP  RH WIND       PRES   REMARKS
K.C. INTL      PTSUNNY   84  64  50 NE9       30.02F
K.C. DOWNTOWN  SUNNY     87  67  51 E9        30.00S HX  90
LEES SUMMIT    MOSUNNY   83  68  60 NE12      30.03R
OLATHE - IXD   PTSUNNY   85  71  63 E6        30.03F HX  90
OLATHE - OJC   MOSUNNY   83  69  62 NE7       30.03S
LAWRENCE       PTSUNNY   82  72  71 N6        30.02S

$$

MOZ001>008-011>017-020>025-030>033-038>040-044>046-053-054-260000-
...NORTHERN AND CENTRAL MISSOURI...

CITY           SKY/WX    TMP DP  RH WIND       PRES   REMARKS
ST. JOSEPH     CLOUDY    85  66  53 NE10      30.02S
MOSBY          CLEAR     84  61  45 NE7       30.02R
WHITEMAN AFB   PTSUNNY   83  73  72 NE8       30.00R
CLINTON        PTSUNNY   82  73  74 CALM      30.01S
SEDALIA        MOSUNNY   84  72  67 NE8       30.02S
WARSAW         NOT AVBL
CHILLICOTHE      N/A     86  66  51 NE8       30.02S
KIRKSVILLE     MOSUNNY   85  65  51 NE12      30.03S

$$

MOZ041-047>049-056>058-063>065-088>090-097-260000-
...EASTERN AND SOUTHERN MISSOURI...

CITY           SKY/WX    TMP DP  RH WIND       PRES   REMARKS
ST. LOUIS INTL PTSUNNY   86  75  69 NW10      29.97S HX  95
SPIRIT OF STL  MOSUNNY   84  74  71 N6        29.96S HX  91
COLUMBIA       MOSUNNY   83  72  69 NE9       30.01R
JEFFERSON CITY PTSUNNY   83  70  64 N5        29.99R
ROLLA          PTSUNNY   80  72  76 NE7       29.99S
OSAGE BEACH    CLOUDY    81  74  79 NE5       30.01R
SPRINGFIELD    MOSUNNY   85  70  60 NE9       30.00S
BRANSON        PTSUNNY   81  70  69 CALM      30.00R
JOPLIN         PTSUNNY   82  73  74 N10       30.00S
WEST PLAINS    CLOUDY    87  73  62 N7        30.00R HX  94

$$

IAZ060-094-KSZ022-034>040-054-083-096-NEZ052-066-093-260000-
...KANSAS...SOUTHEAST NEBRASKA AND IOWA...

CITY           SKY/WX    TMP DP  RH WIND       PRES   REMARKS
TOPEKA         MOSUNNY   85  69  58 E6        30.03S
MANHATTAN      MOSUNNY   84  70  62 VRB7      30.02F
EMPORIA        CLOUDY    80  72  76 N7        30.03F
CHANUTE        CLOUDY    82  72  71 NE9       30.00F
WICHITA        CLOUDY    84  71  65 NE20      30.01R
OMAHA          MOSUNNY   88  65  46 NE7       30.04F HX  90
LINCOLN        SUNNY     87  63  44 NE8       30.05F
FALLS CITY     SUNNY     85  69  58 N8        30.03S
LAMONI         SUNNY     84  69  60 NE10G17   30.03F
DES MOINES     MOSUNNY   87  59  38 NE9G22    30.02F

$$





USA.gov is the U.S. government's official web portal to all federal, state and local government web resources and services.